Time,TemperatureF,DewpointF,PressureIn,WindDirection,WindDirectionDegrees,WindSpeedMPH,WindSpeedGustMPH,Humidity,HourlyPrecipIn,Conditions,Clouds,dailyrainin,SoftwareType,DateUTC
2013-05-19 00:03:00,32.5,15.6,30.15,North,0,0.0,-999.0,49,0.00,,,-99.99,,2013-05-19 08:03:00,
2013-05-19 00:08:00,32.4,15.9,30.15,North,0,0.0,-999.0,50,0.00,,,-99.99,,2013-05-19 08:08:00,
2013-05-19 00:13:00,32.2,15.5,30.15,North,0,0.0,-999.0,49,0.00,,,-99.99,,2013-05-19 08:13:00,
2013-05-19 00:19:00,32.1,16.3,30.15,North,0,0.0,-999.0,51,0.00,,,-99.99,,2013-05-19 08:19:00,
2013-05-19 00:24:00,31.8,15.9,30.15,North,0,0.0,-999.0,51,0.00,,,-99.99,,2013-05-19 08:24:00,
2013-05-19 00:29:00,31.6,16.6,30.15,North,0,0.0,-999.0,53,0.00,,,-99.99,,2013-05-19 08:29:00,
2013-05-19 00:34:00,31.7,16.5,30.15,North,0,0.0,-999.0,53,0.00,,,-99.99,,2013-05-19 08:34:00,
2013-05-19 00:39:00,31.6,16.7,30.15,North,0,0.0,-999.0,53,0.00,,,-99.99,,2013-05-19 08:39:00,
2013-05-19 00:44:00,31.6,16.8,30.15,North,0,0.0,-999.0,53,0.00,,,-99.99,,2013-05-19 08:44:00,
2013-05-19 00:49:00,31.8,16.8,30.15,North,0,0.0,-999.0,53,0.00,,,-99.99,,2013-05-19 08:49:00,
2013-05-19 00:54:00,32.1,17.5,30.15,North,0,0.0,-999.0,54,0.00,,,-99.99,,2013-05-19 08:54:00,
2013-05-19 00:59:00,32.2,17.6,30.16,North,0,0.0,-999.0,54,0.00,,,-99.99,,2013-05-19 08:59:00,
2013-05-19 01:04:00,32.1,17.7,30.16,North,0,0.0,-999.0,54,0.00,,,-99.99,,2013-05-19 09:04:00,
2013-05-19 01:09:00,32.1,18.5,30.16,North,0,0.0,-999.0,56,0.00,,,-99.99,,2013-05-19 09:09:00,
2013-05-19 01:14:00,31.9,18.8,30.16,North,0,0.0,-999.0,58,0.00,,,-99.99,,2013-05-19 09:14:00,
2013-05-19 01:19:00,32.1,19.1,30.16,North,0,0.0,-999.0,58,0.00,,,-99.99,,2013-05-19 09:19:00,
2013-05-19 01:24:00,32.4,20.2,30.16,North,0,0.0,-999.0,60,0.00,,,-99.99,,2013-05-19 09:24:00,
2013-05-19 01:29:00,32.4,19.5,30.16,North,0,0.0,-999.0,58,0.00,,,-99.99,,2013-05-19 09:29:00,
2013-05-19 01:34:00,32.5,19.2,30.16,North,0,0.0,-999.0,57,0.00,,,-99.99,,2013-05-19 09:34:00,
2013-05-19 01:39:00,32.6,19.8,30.16,North,0,0.0,-999.0,58,0.00,,,-99.99,,2013-05-19 09:39:00,
2013-05-19 01:44:00,32.8,19.2,30.16,North,0,0.0,-999.0,56,0.00,,,-99.99,,2013-05-19 09:44:00,
2013-05-19 01:49:00,32.8,19.9,30.16,North,0,0.0,-999.0,58,0.00,,,-99.99,,2013-05-19 09:49:00,
2013-05-19 01:54:00,33.1,19.9,30.16,North,0,0.0,-999.0,57,0.00,,,-99.99,,2013-05-19 09:54:00,
2013-05-19 01:59:00,33.1,19.8,30.20,North,0,0.0,-999.0,57,0.00,,,-99.99,,2013-05-19 09:59:00,
2013-05-19 02:04:00,33.6,20.6,30.20,North,0,0.0,-999.0,58,0.00,,,-99.99,,2013-05-19 10:04:00,
2013-05-19 02:09:00,33.2,19.7,30.20,North,0,0.0,-999.0,57,0.00,,,-99.99,,2013-05-19 10:09:00,
2013-05-19 02:14:00,33.2,19.3,30.20,North,0,0.0,-999.0,56,0.00,,,-99.99,,2013-05-19 10:14:00,
2013-05-19 02:19:00,33.2,20.4,30.20,North,0,0.0,-999.0,58,0.00,,,-99.99,,2013-05-19 10:19:00,
2013-05-19 02:24:00,33.3,19.9,30.20,North,0,0.0,-999.0,57,0.00,,,-99.99,,2013-05-19 10:24:00,
2013-05-19 02:29:00,33.6,19.8,30.20,North,0,0.0,-999.0,56,0.00,,,-99.99,,2013-05-19 10:29:00,
2013-05-19 02:34:00,34.0,19.5,30.20,North,0,0.0,-999.0,55,0.00,,,-99.99,,2013-05-19 10:34:00,
2013-05-19 02:39:00,33.9,19.8,30.20,North,0,0.0,-999.0,55,0.00,,,-99.99,,2013-05-19 10:39:00,
2013-05-19 02:44:00,33.8,19.1,30.20,North,0,0.0,-999.0,54,0.00,,,-99.99,,2013-05-19 10:44:00,
2013-05-19 02:49:00,33.5,19.4,30.20,North,0,0.0,-999.0,55,0.00,,,-99.99,,2013-05-19 10:49:00,
2013-05-19 02:54:00,33.2,18.7,30.20,North,0,0.0,-999.0,54,0.00,,,-99.99,,2013-05-19 10:54:00,
2013-05-19 02:59:00,33.2,19.2,30.20,North,0,0.0,-999.0,56,0.00,,,-99.99,,2013-05-19 10:59:00,
2013-05-19 03:04:00,33.3,19.2,30.20,North,0,0.0,-999.0,55,0.00,,,-99.99,,2013-05-19 11:04:00,
2013-05-19 03:09:00,33.1,18.9,30.20,North,0,0.0,-999.0,55,0.00,,,-99.99,,2013-05-19 11:09:00,
2013-05-19 03:14:00,33.1,18.8,30.20,North,0,0.0,-999.0,55,0.00,,,-99.99,,2013-05-19 11:14:00,
2013-05-19 03:19:00,33.2,18.9,30.20,North,0,0.0,-999.0,55,0.00,,,-99.99,,2013-05-19 11:19:00,
2013-05-19 03:24:00,33.2,19.5,30.20,North,0,0.0,-999.0,56,0.00,,,-99.99,,2013-05-19 11:24:00,
2013-05-19 03:29:00,32.7,19.1,30.20,North,0,0.0,-999.0,56,0.00,,,-99.99,,2013-05-19 11:29:00,
2013-05-19 03:34:00,32.3,19.2,30.20,North,0,0.0,-999.0,58,0.00,,,-99.99,,2013-05-19 11:34:00,
2013-05-19 03:39:00,32.1,19.7,30.20,North,0,0.0,-999.0,59,0.00,,,-99.99,,2013-05-19 11:39:00,
2013-05-19 03:44:00,31.6,19.3,30.20,North,0,0.0,-999.0,59,0.00,,,-99.99,,2013-05-19 11:44:00,
2013-05-19 03:49:00,31.4,19.6,30.20,North,0,0.0,-999.0,61,0.00,,,-99.99,,2013-05-19 11:49:00,
2013-05-19 03:54:00,31.2,19.8,30.20,North,0,0.0,-999.0,62,0.00,,,-99.99,,2013-05-19 11:54:00,
2013-05-19 03:59:00,31.3,20.8,30.24,North,0,0.0,-999.0,64,0.00,,,-99.99,,2013-05-19 11:59:00,
2013-05-19 04:06:00,31.1,21.1,30.24,North,0,0.0,-999.0,66,0.00,,,-99.99,,2013-05-19 12:06:00,
2013-05-19 04:11:00,31.1,21.4,30.24,North,0,0.0,-999.0,66,0.00,,,-99.99,,2013-05-19 12:11:00,
2013-05-19 04:16:00,31.3,21.8,30.24,North,0,0.0,-999.0,67,0.00,,,-99.99,,2013-05-19 12:16:00,
2013-05-19 04:21:00,31.3,21.9,30.24,North,0,0.0,-999.0,67,0.00,,,-99.99,,2013-05-19 12:21:00,
2013-05-19 04:26:00,30.9,21.2,30.24,North,0,0.0,-999.0,66,0.00,,,-99.99,,2013-05-19 12:26:00,
2013-05-19 04:31:00,30.9,21.5,30.24,North,0,0.0,-999.0,67,0.00,,,-99.99,,2013-05-19 12:31:00,
2013-05-19 04:36:00,30.8,21.6,30.24,North,0,0.0,-999.0,68,0.00,,,-99.99,,2013-05-19 12:36:00,
2013-05-19 04:41:00,30.9,21.7,30.24,North,0,0.0,-999.0,68,0.00,,,-99.99,,2013-05-19 12:41:00,
2013-05-19 04:46:00,30.6,21.6,30.24,North,0,0.0,-999.0,68,0.00,,,-99.99,,2013-05-19 12:46:00,
2013-05-19 04:51:00,30.4,21.3,30.24,North,0,0.0,-999.0,68,0.00,,,-99.99,,2013-05-19 12:51:00,
2013-05-19 04:56:00,30.2,21.4,30.24,North,0,0.0,-999.0,69,0.00,,,-99.99,,2013-05-19 12:56:00,
2013-05-19 05:01:00,30.2,21.5,30.27,North,0,0.0,-999.0,69,0.00,,,-99.99,,2013-05-19 13:01:00,
2013-05-19 05:06:00,30.3,21.5,30.27,North,0,0.0,-999.0,69,0.00,,,-99.99,,2013-05-19 13:06:00,
2013-05-19 05:11:00,30.0,21.6,30.27,North,0,0.0,-999.0,70,0.00,,,-99.99,,2013-05-19 13:11:00,
2013-05-19 05:16:00,29.7,20.9,30.27,North,0,0.0,-999.0,69,0.00,,,-99.99,,2013-05-19 13:16:00,
2013-05-19 05:21:00,29.7,21.2,30.27,North,0,0.0,-999.0,70,0.00,,,-99.99,,2013-05-19 13:21:00,
2013-05-19 05:26:00,29.8,21.2,30.27,North,0,0.0,-999.0,69,0.00,,,-99.99,,2013-05-19 13:26:00,
2013-05-19 05:31:00,30.0,21.3,30.27,North,0,0.0,-999.0,69,0.00,,,-99.99,,2013-05-19 13:31:00,
2013-05-19 05:36:00,30.0,21.4,30.27,North,0,0.0,-999.0,69,0.00,,,-99.99,,2013-05-19 13:36:00,
2013-05-19 05:41:00,30.1,21.4,30.27,North,0,0.0,-999.0,69,0.00,,,-99.99,,2013-05-19 13:41:00,
2013-05-19 05:46:00,30.3,21.5,30.27,North,0,0.0,-999.0,69,0.00,,,-99.99,,2013-05-19 13:46:00,
2013-05-19 05:51:00,30.2,21.2,30.27,North,0,0.0,-999.0,68,0.00,,,-99.99,,2013-05-19 13:51:00,
2013-05-19 05:56:00,30.0,20.9,30.27,North,0,0.0,-999.0,68,0.00,,,-99.99,,2013-05-19 13:56:00,
2013-05-19 06:01:00,30.3,21.9,30.27,North,0,0.0,-999.0,70,0.00,,,-99.99,,2013-05-19 14:01:00,
2013-05-19 06:06:00,30.4,21.8,30.27,North,0,0.0,-999.0,70,0.00,,,-99.99,,2013-05-19 14:06:00,
2013-05-19 06:11:00,30.4,21.6,30.27,North,0,0.0,-999.0,69,0.00,,,-99.99,,2013-05-19 14:11:00,
2013-05-19 06:16:00,30.3,21.8,30.27,North,0,0.0,-999.0,70,0.00,,,-99.99,,2013-05-19 14:16:00,
2013-05-19 06:21:00,31.0,22.3,30.27,North,0,0.0,-999.0,69,0.00,,,-99.99,,2013-05-19 14:21:00,
2013-05-19 06:26:00,31.8,22.7,30.27,North,0,0.0,-999.0,68,0.00,,,-99.99,,2013-05-19 14:26:00,
2013-05-19 06:31:00,32.2,22.9,30.27,North,0,0.0,-999.0,68,0.00,,,-99.99,,2013-05-19 14:31:00,
2013-05-19 06:36:00,32.5,22.8,30.27,North,0,0.0,-999.0,67,0.00,,,-99.99,,2013-05-19 14:36:00,
2013-05-19 06:41:00,32.9,22.7,30.27,North,0,0.0,-999.0,65,0.00,,,-99.99,,2013-05-19 14:41:00,
2013-05-19 06:46:00,33.2,23.6,30.27,North,0,0.0,-999.0,67,0.00,,,-99.99,,2013-05-19 14:46:00,
2013-05-19 06:51:00,33.6,23.5,30.27,North,0,0.0,-999.0,66,0.00,,,-99.99,,2013-05-19 14:51:00,
2013-05-19 06:56:00,34.2,23.5,30.27,North,0,0.0,-999.0,64,0.00,,,-99.99,,2013-05-19 14:56:00,
2013-05-19 07:01:00,34.4,23.3,30.31,North,0,0.0,-999.0,63,0.00,,,-99.99,,2013-05-19 15:01:00,
2013-05-19 07:06:00,35.2,23.2,30.31,North,0,0.0,-999.0,61,0.00,,,-99.99,,2013-05-19 15:06:00,
2013-05-19 07:11:00,36.1,23.7,30.31,North,0,0.0,-999.0,60,0.00,,,-99.99,,2013-05-19 15:11:00,
2013-05-19 07:16:00,36.1,22.3,30.31,North,0,0.0,-999.0,56,0.00,,,-99.99,,2013-05-19 15:16:00,
2013-05-19 07:21:00,36.0,21.8,30.31,North,0,0.0,-999.0,55,0.00,,,-99.99,,2013-05-19 15:21:00,
2013-05-19 07:26:00,37.5,23.2,30.31,North,0,0.0,-999.0,55,0.00,,,-99.99,,2013-05-19 15:26:00,
2013-05-19 07:31:00,38.2,23.1,30.31,North,0,0.0,-999.0,54,0.00,,,-99.99,,2013-05-19 15:31:00,
2013-05-19 07:36:00,38.2,22.3,30.31,North,0,0.0,-999.0,52,0.00,,,-99.99,,2013-05-19 15:36:00,
2013-05-19 07:41:00,38.8,22.8,30.31,North,0,0.0,-999.0,52,0.00,,,-99.99,,2013-05-19 15:41:00,
2013-05-19 07:46:00,39.4,22.7,30.31,North,0,0.0,-999.0,50,0.00,,,-99.99,,2013-05-19 15:46:00,
2013-05-19 07:51:00,39.0,22.6,30.31,North,0,0.0,-999.0,51,0.00,,,-99.99,,2013-05-19 15:51:00,
2013-05-19 07:56:00,40.5,22.7,30.31,North,0,0.0,-999.0,48,0.00,,,-99.99,,2013-05-19 15:56:00,
2013-05-19 08:01:00,40.7,22.8,30.32,North,0,0.0,-999.0,48,0.00,,,-99.99,,2013-05-19 16:01:00,
2013-05-19 08:06:00,40.2,22.1,30.32,North,0,0.0,-999.0,47,0.00,,,-99.99,,2013-05-19 16:06:00,
2013-05-19 08:12:00,39.9,22.7,30.32,North,0,0.0,-999.0,49,0.00,,,-99.99,,2013-05-19 16:12:00,
2013-05-19 08:17:00,39.5,20.9,30.32,North,0,0.0,-999.0,46,0.00,,,-99.99,,2013-05-19 16:17:00,
2013-05-19 08:22:00,40.2,22.1,30.32,North,0,0.0,-999.0,48,0.00,,,-99.99,,2013-05-19 16:22:00,
2013-05-19 08:27:00,40.8,22.9,30.32,North,0,0.0,-999.0,48,0.00,,,-99.99,,2013-05-19 16:27:00,
2013-05-19 08:32:00,41.3,23.1,30.32,North,0,0.0,-999.0,48,0.00,,,-99.99,,2013-05-19 16:32:00,
2013-05-19 08:37:00,41.2,23.1,30.32,North,0,0.0,-999.0,48,0.00,,,-99.99,,2013-05-19 16:37:00,
2013-05-19 08:42:00,40.4,22.1,30.32,North,0,0.0,-999.0,47,0.00,,,-99.99,,2013-05-19 16:42:00,
2013-05-19 08:47:00,41.1,23.4,30.32,North,0,0.0,-999.0,49,0.00,,,-99.99,,2013-05-19 16:47:00,
2013-05-19 08:52:00,41.3,22.9,30.32,North,0,0.0,-999.0,47,0.00,,,-99.99,,2013-05-19 16:52:00,
2013-05-19 08:57:00,41.0,23.0,30.32,North,0,0.0,-999.0,48,0.00,,,-99.99,,2013-05-19 16:57:00,
2013-05-19 09:02:00,41.1,22.9,30.35,North,0,0.0,-999.0,48,0.00,,,-99.99,,2013-05-19 17:02:00,
2013-05-19 09:07:00,41.9,22.3,30.35,North,0,0.0,-999.0,45,0.00,,,-99.99,,2013-05-19 17:07:00,
2013-05-19 09:12:00,41.8,23.2,30.35,North,0,0.0,-999.0,47,0.00,,,-99.99,,2013-05-19 17:12:00,
2013-05-19 09:17:00,42.9,22.8,30.35,North,0,0.0,-999.0,44,0.00,,,-99.99,,2013-05-19 17:17:00,
2013-05-19 09:22:00,43.2,22.5,30.35,North,0,0.0,-999.0,43,0.00,,,-99.99,,2013-05-19 17:22:00,
2013-05-19 09:27:00,44.5,23.8,30.35,North,0,0.0,-999.0,43,0.00,,,-99.99,,2013-05-19 17:27:00,
2013-05-19 09:32:00,43.2,21.5,30.35,North,0,0.0,-999.0,41,0.00,,,-99.99,,2013-05-19 17:32:00,
2013-05-19 09:37:00,42.0,21.2,30.35,North,0,0.0,-999.0,43,0.00,,,-99.99,,2013-05-19 17:37:00,
2013-05-19 09:42:00,42.4,20.7,30.35,North,0,0.0,-999.0,41,0.00,,,-99.99,,2013-05-19 17:42:00,
2013-05-19 09:47:00,43.9,23.1,30.35,North,0,0.0,-999.0,43,0.00,,,-99.99,,2013-05-19 17:47:00,
2013-05-19 09:52:00,42.7,23.0,30.35,North,0,0.0,-999.0,45,0.00,,,-99.99,,2013-05-19 17:52:00,
2013-05-19 09:57:00,43.2,22.5,30.35,North,0,0.0,-999.0,43,0.00,,,-99.99,,2013-05-19 17:57:00,
2013-05-19 10:02:00,43.7,23.4,30.37,North,0,0.0,-999.0,44,0.00,,,-99.99,,2013-05-19 18:02:00,
2013-05-19 10:08:00,42.2,20.8,30.37,North,0,0.0,-999.0,42,0.00,,,-99.99,,2013-05-19 18:08:00,
2013-05-19 10:13:00,43.3,22.8,30.37,North,0,0.0,-999.0,43,0.00,,,-99.99,,2013-05-19 18:13:00,
2013-05-19 10:18:00,43.3,21.0,30.37,North,0,0.0,-999.0,40,0.00,,,-99.99,,2013-05-19 18:18:00,
2013-05-19 10:23:00,43.0,22.3,30.37,North,0,0.0,-999.0,43,0.00,,,-99.99,,2013-05-19 18:23:00,
2013-05-19 10:28:00,43.8,23.4,30.37,North,0,0.0,-999.0,44,0.00,,,-99.99,,2013-05-19 18:28:00,
2013-05-19 10:33:00,44.5,21.7,30.37,North,0,0.0,-999.0,40,0.00,,,-99.99,,2013-05-19 18:33:00,
2013-05-19 10:38:00,42.9,21.6,30.37,North,0,0.0,-999.0,42,0.00,,,-99.99,,2013-05-19 18:38:00,
2013-05-19 10:43:00,43.9,21.9,30.37,North,0,0.0,-999.0,41,0.00,,,-99.99,,2013-05-19 18:43:00,
2013-05-19 10:48:00,44.3,21.4,30.37,North,0,0.0,-999.0,39,0.00,,,-99.99,,2013-05-19 18:48:00,
2013-05-19 10:53:00,43.9,22.8,30.37,North,0,0.0,-999.0,42,0.00,,,-99.99,,2013-05-19 18:53:00,
2013-05-19 10:58:00,43.8,23.2,30.37,North,0,0.0,-999.0,43,0.00,,,-99.99,,2013-05-19 18:58:00,
2013-05-19 11:03:00,43.7,20.4,30.37,North,0,0.0,-999.0,38,0.00,,,-99.99,,2013-05-19 19:03:00,
2013-05-19 11:08:00,44.9,23.3,30.37,North,0,0.0,-999.0,42,0.00,,,-99.99,,2013-05-19 19:08:00,
2013-05-19 11:13:00,44.6,22.4,30.37,North,0,0.0,-999.0,40,0.00,,,-99.99,,2013-05-19 19:13:00,
2013-05-19 11:18:00,43.9,20.4,30.37,North,0,0.0,-999.0,38,0.00,,,-99.99,,2013-05-19 19:18:00,
2013-05-19 11:23:00,44.9,22.6,30.37,North,0,0.0,-999.0,40,0.00,,,-99.99,,2013-05-19 19:23:00,
2013-05-19 11:28:00,44.8,22.7,30.37,North,0,0.0,-999.0,41,0.00,,,-99.99,,2013-05-19 19:28:00,
2013-05-19 11:33:00,44.9,20.8,30.37,North,0,0.0,-999.0,37,0.00,,,-99.99,,2013-05-19 19:33:00,
2013-05-19 11:38:00,43.7,22.5,30.37,North,0,0.0,-999.0,42,0.00,,,-99.99,,2013-05-19 19:38:00,
2013-05-19 11:43:00,44.7,22.4,30.37,North,0,0.0,-999.0,40,0.00,,,-99.99,,2013-05-19 19:43:00,
2013-05-19 11:48:00,46.0,22.6,30.37,North,0,0.0,-999.0,39,0.00,,,-99.99,,2013-05-19 19:48:00,
2013-05-19 11:53:00,46.3,22.9,30.37,North,0,0.0,-999.0,39,0.00,,,-99.99,,2013-05-19 19:53:00,
2013-05-19 11:59:00,45.3,21.6,30.37,North,0,0.0,-999.0,38,0.00,,,-99.99,,2013-05-19 19:59:00,
2013-05-19 12:04:00,44.5,19.3,30.41,North,0,0.0,-999.0,36,0.00,,,-99.99,,2013-05-19 20:04:00,
2013-05-19 12:09:00,45.5,21.6,30.41,North,0,0.0,-999.0,38,0.00,,,-99.99,,2013-05-19 20:09:00,
2013-05-19 12:14:00,45.3,22.1,30.41,North,0,0.0,-999.0,39,0.00,,,-99.99,,2013-05-19 20:14:00,
2013-05-19 12:19:00,45.0,20.6,30.41,North,0,0.0,-999.0,37,0.00,,,-99.99,,2013-05-19 20:19:00,
2013-05-19 12:24:00,46.4,23.6,30.41,North,0,0.0,-999.0,40,0.00,,,-99.99,,2013-05-19 20:24:00,
2013-05-19 12:29:00,44.9,21.2,30.41,North,0,0.0,-999.0,38,0.00,,,-99.99,,2013-05-19 20:29:00,
2013-05-19 12:34:00,46.7,24.0,30.41,North,0,0.0,-999.0,40,0.00,,,-99.99,,2013-05-19 20:34:00,
2013-05-19 12:39:00,47.8,23.0,30.41,North,0,0.0,-999.0,37,0.00,,,-99.99,,2013-05-19 20:39:00,
2013-05-19 12:44:00,46.6,20.9,30.41,North,0,0.0,-999.0,35,0.00,,,-99.99,,2013-05-19 20:44:00,
2013-05-19 12:49:00,46.9,19.9,30.41,North,0,0.0,-999.0,33,0.00,,,-99.99,,2013-05-19 20:49:00,
2013-05-19 12:54:00,46.1,19.4,30.41,North,0,0.0,-999.0,34,0.00,,,-99.99,,2013-05-19 20:54:00,
2013-05-19 12:59:00,46.5,21.6,30.42,North,0,0.0,-999.0,36,0.00,,,-99.99,,2013-05-19 20:59:00,
2013-05-19 13:04:00,46.1,20.8,30.42,North,0,0.0,-999.0,36,0.00,,,-99.99,,2013-05-19 21:04:00,
2013-05-19 13:09:00,45.9,21.8,30.42,North,0,0.0,-999.0,38,0.00,,,-99.99,,2013-05-19 21:09:00,
2013-05-19 13:14:00,47.0,19.7,30.42,North,0,0.0,-999.0,33,0.00,,,-99.99,,2013-05-19 21:14:00,
2013-05-19 13:19:00,47.5,20.3,30.42,North,0,0.0,-999.0,33,0.00,,,-99.99,,2013-05-19 21:19:00,
2013-05-19 13:24:00,48.6,21.3,30.42,North,0,0.0,-999.0,33,0.00,,,-99.99,,2013-05-19 21:24:00,
2013-05-19 13:29:00,46.5,20.0,30.42,North,0,0.0,-999.0,34,0.00,,,-99.99,,2013-05-19 21:29:00,
2013-05-19 13:34:00,47.0,20.0,30.42,North,0,0.0,-999.0,33,0.00,,,-99.99,,2013-05-19 21:34:00,
2013-05-19 13:39:00,46.3,19.9,30.42,North,0,0.0,-999.0,34,0.00,,,-99.99,,2013-05-19 21:39:00,
2013-05-19 13:44:00,46.5,20.0,30.42,North,0,0.0,-999.0,34,0.00,,,-99.99,,2013-05-19 21:44:00,
2013-05-19 13:49:00,47.9,19.5,30.42,North,0,0.0,-999.0,32,0.00,,,-99.99,,2013-05-19 21:49:00,
2013-05-19 13:54:00,48.3,21.7,30.42,North,0,0.0,-999.0,34,0.00,,,-99.99,,2013-05-19 21:54:00,
2013-05-19 13:59:00,47.1,18.6,30.43,North,0,0.0,-999.0,31,0.00,,,-99.99,,2013-05-19 21:59:00,
2013-05-19 14:04:00,47.0,18.0,30.43,North,0,0.0,-999.0,31,0.00,,,-99.99,,2013-05-19 22:04:00,
2013-05-19 14:09:00,48.6,21.2,30.43,North,0,0.0,-999.0,33,0.00,,,-99.99,,2013-05-19 22:09:00,
2013-05-19 14:14:00,48.3,21.1,30.43,North,0,0.0,-999.0,33,0.00,,,-99.99,,2013-05-19 22:14:00,
2013-05-19 14:19:00,48.1,18.6,30.43,North,0,0.0,-999.0,30,0.00,,,-99.99,,2013-05-19 22:19:00,
2013-05-19 14:24:00,48.5,20.2,30.43,North,0,0.0,-999.0,32,0.00,,,-99.99,,2013-05-19 22:24:00,
2013-05-19 14:29:00,49.3,19.8,30.43,North,0,0.0,-999.0,30,0.00,,,-99.99,,2013-05-19 22:29:00,
2013-05-19 14:34:00,49.4,19.4,30.43,North,0,0.0,-999.0,30,0.00,,,-99.99,,2013-05-19 22:34:00,
2013-05-19 14:39:00,48.0,21.4,30.43,North,0,0.0,-999.0,34,0.00,,,-99.99,,2013-05-19 22:39:00,
2013-05-19 14:44:00,47.0,21.8,30.43,North,0,0.0,-999.0,36,0.00,,,-99.99,,2013-05-19 22:44:00,
2013-05-19 14:49:00,48.6,21.5,30.43,North,0,0.0,-999.0,34,0.00,,,-99.99,,2013-05-19 22:49:00,
2013-05-19 14:54:00,46.0,21.4,30.43,North,0,0.0,-999.0,37,0.00,,,-99.99,,2013-05-19 22:54:00,
2013-05-19 14:59:00,45.5,21.4,30.45,North,0,0.0,-999.0,38,0.00,,,-99.99,,2013-05-19 22:59:00,
2013-05-19 15:04:00,45.2,23.0,30.45,North,0,0.0,-999.0,41,0.00,,,-99.99,,2013-05-19 23:04:00,
2013-05-19 15:09:00,45.1,22.2,30.45,North,0,0.0,-999.0,39,0.00,,,-99.99,,2013-05-19 23:09:00,
2013-05-19 15:14:00,45.9,21.4,30.45,North,0,0.0,-999.0,37,0.00,,,-99.99,,2013-05-19 23:14:00,
2013-05-19 15:19:00,44.8,22.4,30.45,North,0,0.0,-999.0,40,0.00,,,-99.99,,2013-05-19 23:19:00,
2013-05-19 15:24:00,44.8,22.1,30.45,North,0,0.0,-999.0,40,0.00,,,-99.99,,2013-05-19 23:24:00,
2013-05-19 15:29:00,44.8,22.0,30.45,North,0,0.0,-999.0,40,0.00,,,-99.99,,2013-05-19 23:29:00,
2013-05-19 15:34:00,47.0,23.3,30.45,North,0,0.0,-999.0,38,0.00,,,-99.99,,2013-05-19 23:34:00,
2013-05-19 15:39:00,46.5,23.7,30.45,North,0,0.0,-999.0,40,0.00,,,-99.99,,2013-05-19 23:39:00,
2013-05-19 15:44:00,45.9,25.0,30.45,North,0,0.0,-999.0,43,0.00,,,-99.99,,2013-05-19 23:44:00,
2013-05-19 15:49:00,45.5,24.7,30.45,North,0,0.0,-999.0,43,0.00,,,-99.99,,2013-05-19 23:49:00,
2013-05-19 15:54:00,44.1,24.5,30.45,North,0,0.0,-999.0,45,0.00,,,-99.99,,2013-05-19 23:54:00,
2013-05-19 15:59:00,45.1,24.6,30.45,North,0,0.0,-999.0,44,0.00,,,-99.99,,2013-05-19 23:59:00,
2013-05-19 16:04:00,46.2,25.5,30.45,North,0,0.0,-999.0,43,0.00,,,-99.99,,2013-05-20 00:04:00,
2013-05-19 16:11:00,46.1,24.3,30.45,North,0,0.0,-999.0,42,0.00,,,-99.99,,2013-05-20 00:11:00,
2013-05-19 16:16:00,45.1,24.5,30.45,North,0,0.0,-999.0,43,0.00,,,-99.99,,2013-05-20 00:16:00,
2013-05-19 16:21:00,44.8,24.2,30.45,North,0,0.0,-999.0,44,0.00,,,-99.99,,2013-05-20 00:21:00,
2013-05-19 16:26:00,44.3,24.6,30.45,North,0,0.0,-999.0,45,0.00,,,-99.99,,2013-05-20 00:26:00,
2013-05-19 16:31:00,44.7,23.5,30.45,North,0,0.0,-999.0,42,0.00,,,-99.99,,2013-05-20 00:31:00,
2013-05-19 16:36:00,45.2,24.0,30.45,North,0,0.0,-999.0,42,0.00,,,-99.99,,2013-05-20 00:36:00,
2013-05-19 16:41:00,45.4,23.9,30.45,North,0,0.0,-999.0,42,0.00,,,-99.99,,2013-05-20 00:41:00,
2013-05-19 16:46:00,46.0,24.8,30.45,North,0,0.0,-999.0,42,0.00,,,-99.99,,2013-05-20 00:46:00,
2013-05-19 16:51:00,44.9,25.2,30.45,North,0,0.0,-999.0,45,0.00,,,-99.99,,2013-05-20 00:51:00,
2013-05-19 16:56:00,45.7,25.7,30.45,North,0,0.0,-999.0,45,0.00,,,-99.99,,2013-05-20 00:56:00,
2013-05-19 17:01:00,45.1,25.9,30.47,North,0,0.0,-999.0,46,0.00,,,-99.99,,2013-05-20 01:01:00,
2013-05-19 17:06:00,45.6,25.4,30.47,North,0,0.0,-999.0,44,0.00,,,-99.99,,2013-05-20 01:06:00,
2013-05-19 17:11:00,44.5,25.2,30.47,North,0,0.0,-999.0,46,0.00,,,-99.99,,2013-05-20 01:11:00,
2013-05-19 17:16:00,45.2,25.7,30.47,North,0,0.0,-999.0,46,0.00,,,-99.99,,2013-05-20 01:16:00,
2013-05-19 17:21:00,45.3,26.3,30.47,North,0,0.0,-999.0,47,0.00,,,-99.99,,2013-05-20 01:21:00,
2013-05-19 17:26:00,45.6,26.2,30.47,North,0,0.0,-999.0,46,0.00,,,-99.99,,2013-05-20 01:26:00,
2013-05-19 17:31:00,45.7,26.2,30.47,North,0,0.0,-999.0,46,0.00,,,-99.99,,2013-05-20 01:31:00,
2013-05-19 17:36:00,46.2,26.7,30.47,North,0,0.0,-999.0,46,0.00,,,-99.99,,2013-05-20 01:36:00,
2013-05-19 17:41:00,45.7,25.3,30.47,North,0,0.0,-999.0,44,0.00,,,-99.99,,2013-05-20 01:41:00,
2013-05-19 17:46:00,45.6,25.9,30.47,North,0,0.0,-999.0,45,0.00,,,-99.99,,2013-05-20 01:46:00,
2013-05-19 17:51:00,46.0,26.6,30.47,North,0,0.0,-999.0,46,0.00,,,-99.99,,2013-05-20 01:51:00,
2013-05-19 17:56:00,46.8,27.4,30.47,North,0,0.0,-999.0,46,0.00,,,-99.99,,2013-05-20 01:56:00,
2013-05-19 18:01:00,46.2,26.5,30.46,North,0,0.0,-999.0,45,0.00,,,-99.99,,2013-05-20 02:01:00,
2013-05-19 18:06:00,47.6,26.9,30.46,North,0,0.0,-999.0,44,0.00,,,-99.99,,2013-05-20 02:06:00,
2013-05-19 18:11:00,47.9,27.6,30.46,North,0,0.0,-999.0,45,0.00,,,-99.99,,2013-05-20 02:11:00,
2013-05-19 18:16:00,47.0,27.2,30.46,North,0,0.0,-999.0,45,0.00,,,-99.99,,2013-05-20 02:16:00,
2013-05-19 18:21:00,46.4,27.3,30.46,North,0,0.0,-999.0,47,0.00,,,-99.99,,2013-05-20 02:21:00,
2013-05-19 18:26:00,46.3,27.5,30.46,North,0,0.0,-999.0,47,0.00,,,-99.99,,2013-05-20 02:26:00,
2013-05-19 18:31:00,46.3,27.9,30.46,North,0,0.0,-999.0,48,0.00,,,-99.99,,2013-05-20 02:31:00,
2013-05-19 18:36:00,45.6,27.6,30.46,North,0,0.0,-999.0,49,0.00,,,-99.99,,2013-05-20 02:36:00,
2013-05-19 18:41:00,45.3,27.6,30.46,North,0,0.0,-999.0,49,0.00,,,-99.99,,2013-05-20 02:41:00,
2013-05-19 18:46:00,45.2,27.7,30.46,North,0,0.0,-999.0,50,0.00,,,-99.99,,2013-05-20 02:46:00,
2013-05-19 18:51:00,45.5,27.7,30.46,North,0,0.0,-999.0,49,0.00,,,-99.99,,2013-05-20 02:51:00,
2013-05-19 18:56:00,45.2,27.3,30.46,North,0,0.0,-999.0,49,0.00,,,-99.99,,2013-05-20 02:56:00,
2013-05-19 19:01:00,45.3,26.9,30.46,North,0,0.0,-999.0,48,0.00,,,-99.99,,2013-05-20 03:01:00,
2013-05-19 19:06:00,45.1,26.8,30.46,North,0,0.0,-999.0,48,0.00,,,-99.99,,2013-05-20 03:06:00,
2013-05-19 19:11:00,45.2,27.0,30.46,North,0,0.0,-999.0,48,0.00,,,-99.99,,2013-05-20 03:11:00,
2013-05-19 19:16:00,45.1,27.0,30.46,North,0,0.0,-999.0,48,0.00,,,-99.99,,2013-05-20 03:16:00,
2013-05-19 19:21:00,45.5,26.7,30.46,North,0,0.0,-999.0,47,0.00,,,-99.99,,2013-05-20 03:21:00,
2013-05-19 19:26:00,44.9,26.8,30.46,North,0,0.0,-999.0,48,0.00,,,-99.99,,2013-05-20 03:26:00,
2013-05-19 19:31:00,45.1,26.9,30.46,North,0,0.0,-999.0,48,0.00,,,-99.99,,2013-05-20 03:31:00,
2013-05-19 19:36:00,45.0,26.7,30.46,North,0,0.0,-999.0,48,0.00,,,-99.99,,2013-05-20 03:36:00,
2013-05-19 19:41:00,44.2,26.0,30.46,North,0,0.0,-999.0,48,0.00,,,-99.99,,2013-05-20 03:41:00,
2013-05-19 19:46:00,44.4,26.0,30.46,North,0,0.0,-999.0,48,0.00,,,-99.99,,2013-05-20 03:46:00,
2013-05-19 19:51:00,44.8,27.0,30.46,North,0,0.0,-999.0,49,0.00,,,-99.99,,2013-05-20 03:51:00,
2013-05-19 19:56:00,45.0,27.0,30.46,North,0,0.0,-999.0,48,0.00,,,-99.99,,2013-05-20 03:56:00,
2013-05-19 20:01:00,45.3,27.6,30.49,North,0,0.0,-999.0,49,0.00,,,-99.99,,2013-05-20 04:01:00,
2013-05-19 20:02:00,45.2,27.6,30.49,North,0,0.0,-999.0,49,0.00,,,-99.99,,2013-05-20 04:02:00,
2013-05-19 20:04:00,44.7,26.0,30.49,North,0,0.0,-999.0,47,0.00,,,-99.99,,2013-05-20 04:04:00,
2013-05-19 20:07:00,44.7,27.1,30.49,North,0,0.0,-999.0,49,0.00,,,-99.99,,2013-05-20 04:07:00,
2013-05-19 20:09:00,44.8,27.9,30.49,North,0,0.0,-999.0,51,0.00,,,-99.99,,2013-05-20 04:09:00,
2013-05-19 20:14:00,44.9,28.0,30.49,North,0,0.0,-999.0,51,0.00,,,-99.99,,2013-05-20 04:14:00,
2013-05-19 20:19:00,44.8,27.9,30.49,North,0,0.0,-999.0,51,0.00,,,-99.99,,2013-05-20 04:19:00,
2013-05-19 20:24:00,44.1,26.9,30.49,North,0,0.0,-999.0,50,0.00,,,-99.99,,2013-05-20 04:24:00,
2013-05-19 20:29:00,44.1,27.7,30.49,North,0,0.0,-999.0,52,0.00,,,-99.99,,2013-05-20 04:29:00,
2013-05-19 20:34:00,44.4,27.9,30.49,North,0,0.0,-999.0,52,0.00,,,-99.99,,2013-05-20 04:34:00,
2013-05-19 20:39:00,44.1,27.8,30.49,North,0,0.0,-999.0,52,0.00,,,-99.99,,2013-05-20 04:39:00,
2013-05-19 20:44:00,44.3,27.5,30.49,North,0,0.0,-999.0,51,0.00,,,-99.99,,2013-05-20 04:44:00,
2013-05-19 20:49:00,44.2,27.8,30.49,North,0,0.0,-999.0,52,0.00,,,-99.99,,2013-05-20 04:49:00,
2013-05-19 20:54:00,44.6,27.7,30.49,North,0,0.0,-999.0,51,0.00,,,-99.99,,2013-05-20 04:54:00,
2013-05-19 20:59:00,44.4,27.8,30.47,North,0,0.0,-999.0,51,0.00,,,-99.99,,2013-05-20 04:59:00,
2013-05-19 21:04:00,44.3,27.5,30.47,North,0,0.0,-999.0,51,0.00,,,-99.99,,2013-05-20 05:04:00,
2013-05-19 21:09:00,44.2,27.7,30.47,North,0,0.0,-999.0,52,0.00,,,-99.99,,2013-05-20 05:09:00,
2013-05-19 21:14:00,43.5,27.9,30.47,North,0,0.0,-999.0,53,0.00,,,-99.99,,2013-05-20 05:14:00,
2013-05-19 21:19:00,43.4,27.2,30.47,North,0,0.0,-999.0,52,0.00,,,-99.99,,2013-05-20 05:19:00,
2013-05-19 21:24:00,43.1,27.8,30.47,North,0,0.0,-999.0,54,0.00,,,-99.99,,2013-05-20 05:24:00,
2013-05-19 21:29:00,42.9,28.0,30.47,North,0,0.0,-999.0,55,0.00,,,-99.99,,2013-05-20 05:29:00,
2013-05-19 21:34:00,42.5,28.2,30.47,North,0,0.0,-999.0,56,0.00,,,-99.99,,2013-05-20 05:34:00,
2013-05-19 21:39:00,41.9,28.5,30.47,North,0,0.0,-999.0,58,0.00,,,-99.99,,2013-05-20 05:39:00,
2013-05-19 21:44:00,41.4,28.6,30.47,North,0,0.0,-999.0,60,0.00,,,-99.99,,2013-05-20 05:44:00,
2013-05-19 21:49:00,41.2,28.8,30.47,North,0,0.0,-999.0,61,0.00,,,-99.99,,2013-05-20 05:49:00,
2013-05-19 21:54:00,41.0,29.1,30.47,North,0,0.0,-999.0,62,0.00,,,-99.99,,2013-05-20 05:54:00,
2013-05-19 21:59:00,40.6,29.2,30.50,North,0,0.0,-999.0,63,0.00,,,-99.99,,2013-05-20 05:59:00,
2013-05-19 22:04:00,40.5,29.4,30.50,North,0,0.0,-999.0,64,0.00,,,-99.99,,2013-05-20 06:04:00,
2013-05-19 22:09:00,40.2,29.3,30.50,North,0,0.0,-999.0,64,0.00,,,-99.99,,2013-05-20 06:09:00,
2013-05-19 22:14:00,40.2,29.4,30.50,North,0,0.0,-999.0,65,0.00,,,-99.99,,2013-05-20 06:14:00,
2013-05-19 22:19:00,39.8,29.2,30.50,North,0,0.0,-999.0,65,0.00,,,-99.99,,2013-05-20 06:19:00,
2013-05-19 22:24:00,39.5,28.5,30.50,North,0,0.0,-999.0,64,0.00,,,-99.99,,2013-05-20 06:24:00,
2013-05-19 22:29:00,39.4,28.5,30.50,North,0,0.0,-999.0,64,0.00,,,-99.99,,2013-05-20 06:29:00,
2013-05-19 22:34:00,39.4,28.7,30.50,North,0,0.0,-999.0,65,0.00,,,-99.99,,2013-05-20 06:34:00,
2013-05-19 22:39:00,39.2,29.4,30.50,North,0,0.0,-999.0,67,0.00,,,-99.99,,2013-05-20 06:39:00,
2013-05-19 22:44:00,39.2,29.8,30.50,North,0,0.0,-999.0,68,0.00,,,-99.99,,2013-05-20 06:44:00,
2013-05-19 22:49:00,38.8,29.6,30.50,North,0,0.0,-999.0,69,0.00,,,-99.99,,2013-05-20 06:49:00,
2013-05-19 22:54:00,38.7,30.3,30.50,North,0,0.0,-999.0,71,0.00,,,-99.99,,2013-05-20 06:54:00,
2013-05-19 22:59:00,38.3,30.4,30.51,North,0,0.0,-999.0,72,0.00,,,-99.99,,2013-05-20 06:59:00,
2013-05-19 23:04:00,38.4,30.8,30.51,North,0,0.0,-999.0,73,0.00,,,-99.99,,2013-05-20 07:04:00,
2013-05-19 23:09:00,38.7,31.2,30.51,North,0,0.0,-999.0,74,0.00,,,-99.99,,2013-05-20 07:09:00,
2013-05-19 23:14:00,38.6,31.3,30.51,North,0,0.0,-999.0,74,0.00,,,-99.99,,2013-05-20 07:14:00,
2013-05-19 23:19:00,38.5,31.6,30.51,North,0,0.0,-999.0,75,0.00,,,-99.99,,2013-05-20 07:19:00,
2013-05-19 23:24:00,38.4,32.0,30.51,North,0,0.0,-999.0,77,0.00,,,-99.99,,2013-05-20 07:24:00,
2013-05-19 23:29:00,38.2,32.0,30.51,North,0,0.0,-999.0,78,0.00,,,-99.99,,2013-05-20 07:29:00,
2013-05-19 23:34:00,38.0,32.0,30.51,North,0,0.0,-999.0,78,0.00,,,-99.99,,2013-05-20 07:34:00,
2013-05-19 23:39:00,38.0,32.2,30.51,North,0,0.0,-999.0,79,0.00,,,-99.99,,2013-05-20 07:39:00,
2013-05-19 23:44:00,37.7,31.9,30.51,North,0,0.0,-999.0,79,0.00,,,-99.99,,2013-05-20 07:44:00,
2013-05-19 23:49:00,37.8,32.1,30.51,North,0,0.0,-999.0,79,0.00,,,-99.99,,2013-05-20 07:49:00,
2013-05-19 23:54:00,37.6,31.8,30.51,North,0,0.0,-999.0,79,0.00,,,-99.99,,2013-05-20 07:54:00,
2013-05-19 23:59:00,37.5,31.3,30.52,North,0,0.0,-999.0,77,0.00,,,-99.99,,2013-05-20 07:59:00,